This is the latest recevied weather packets stored in our database for station/object OE5ERN-10. If no packets are shown the sender has not sent any weather packets the latest 1 day(s).
| Time | Temp. | Humidity | Pressure | Rain* | Wind** | Luminosity | Snow |
|---|---|---|---|---|---|---|---|
| 1836274814 | 8.89° C | 85% | 1026.7 hPa | 0 mm | 0 m/s | - | - |
| 1836273914 | 8.89° C | 85% | 1026.8 hPa | 0 mm | 0 m/s | - | - |
| 1778023531 | 12.78° C | 84% | 1012.1 hPa | 0 mm | 0.45 m/s, 270° | - | - |
| 1778022631 | 12.78° C | 84% | 1012 hPa | 0 mm | 0 m/s | - | - |
| 1778021731 | 12.78° C | 84% | 1012 hPa | 0 mm | 0 m/s | - | - |
| 1778020831 | 12.22° C | 84% | 1011.9 hPa | 0 mm | 0 m/s | - | - |
| 1778019931 | 12.22° C | 83% | 1011.5 hPa | 0 mm | 0 m/s | - | - |
| 1778019031 | 12.22° C | 82% | 1011.5 hPa | 0 mm | 0 m/s | - | - |
| 1778018132 | 12.22° C | 81% | 1011.2 hPa | 0 mm | 0.45 m/s, 292° | - | - |
| 1778017232 | 12.78° C | 81% | 1010.9 hPa | 0 mm | 0 m/s | - | - |
| 1778016332 | 13.33° C | 80% | 1010.7 hPa | 0 mm | 0 m/s | - | - |
| 1778015432 | 13.89° C | 79% | 1010.5 hPa | 0 mm | 0 m/s | - | - |
| 1778014531 | 14.44° C | 80% | 1010.3 hPa | 0 mm | 0 m/s | - | - |
| 1778013631 | 13.89° C | 82% | 1010.4 hPa | 0.51 mm | 1.34 m/s, 112° | - | - |
| 1778012732 | 13.89° C | 82% | 1010.2 hPa | 0.51 mm | 0 m/s | - | - |
| 1778011832 | 13.33° C | 82% | 1010 hPa | 1.02 mm | 1.34 m/s, 180° | - | - |
| 1778010932 | 13.89° C | 82% | 1009.2 hPa | 1.02 mm | 0 m/s | - | - |
| 1778010032 | 13.89° C | 80% | 1009.4 hPa | 0.51 mm | 1.79 m/s, 315° | - | - |
| 1778009132 | 14.44° C | 77% | 1009.7 hPa | 0.51 mm | 2.24 m/s, 292° | - | - |
| 1778008232 | 14.44° C | 75% | 1009.8 hPa | 0 mm | 8.94 m/s, 292° | - | - |
| 1778007332 | 15.56° C | 69% | 1009.4 hPa | 0 mm | 3.58 m/s, 270° | - | - |
| 1778006432 | 16.67° C | 64% | 1009.1 hPa | 0 mm | 8.49 m/s, 292° | - | - |
| 1778005532 | 19.44° C | 53% | 1008.7 hPa | 0 mm | 8.49 m/s, 270° | - | - |
| 1778004632 | 21.11° C | 47% | 1008.3 hPa | 0 mm | 7.15 m/s, 270° | - | - |
| 1778003732 | 21.67° C | 44% | 1007.9 hPa | 0 mm | 0 m/s | - | - |
* Rain latest hour (hover to see other rain measurements)
** Current wind speed in m/s (hover to see current wind gust speed)